Starlink 35496

operational
NORAD ID: 66114 Int'l Des: 2025-237 Owner: SPXS Country: US Constellation: starlink
LEOCIRCULAR

关于 Starlink 35496

正在加载描述...

实时位置

正在加载3D地球...

即将过境

高度历史

Altitude vs Time

uPlot chart will show altitude changes over time

两行轨道根数

1 66114C 25237A 25298.72965278 -.01126800 00000+0 -20157-2 0 2987
2 66114 53.1554 319.2319 0000741 65.0969 162.2424 16.02140946 13
Epoch: Oct 25, 2025 • Age: 162 hours

当前状态

高度 302.2 km
速度 7.73 km/s
星下点 -24.53°S, 176.92°W
发射日期 Oct 22, 2025
运行时间 9 days
类型 internet

技术详情

分类 Payload
质量 575.00 kg
干质量 530.00 kg
总质量 575.00 kg
长度 0.30 m
直径 4.10 m
跨度 29.00 m
形状 Box + pan
制造商 SPXS
平台类型 Starlink V2MO
阶段状态 In Orbit
所有者/国家 SPXS/US

大型星座

Loading constellations...